Regional Weather Roundup
Issued by NWS

Home | Current Version | Previous Version | Text Only | Print | Product List | Glossary Off
Versions: 1 2 3 4 5 6 7 8 9 10 11 12 13 14 15 16 17 18 19 20 21 22 23 24 25 26 27 28 29 30 31 32 33 34 35 36 37 38 39 40 41 42 43 44 45 46 47 48 49 50

000
ASUS45 KPSR 301510
RWRAZ

ARIZONA REGIONAL HOURLY WEATHER ROUNDUP
NATIONAL WEATHER SERVICE PHOENIX AZ
800 AM MST MON MAR 30 2015

NOTE: FAIR INDICATES FEW OR NO CLOUDS BELOW 12,000 FEET WITH NO
SIGNIFICANT WEATHER AND/OR OBSTRUCTIONS TO VISIBILITY.

AZZ001>003-036-301600-
NORTHWEST ARIZONA

CITY           SKY/WX    TMP DP  RH WIND       PRES   REMARKS
BULLHEAD CITY  SUNNY     64  28  25 CALM      30.01R
KINGMAN        SUNNY     63  25  23 CALM      30.13R
$$

AZZ004>008-015-016-018-301600-
NORTH CENTRAL ARIZONA

CITY           SKY/WX    TMP DP  RH WIND       PRES   REMARKS
GRAND CANYON   SUNNY     44  27  51 CALM      30.29S
WILLIAMS       SUNNY     50  25  37 S6        30.36R
PRESCOTT       PTSUNNY   52  24  33 CALM      30.23R
FLAGSTAFF      MOSUNNY   41  25  53 CALM      30.31R
PAYSON         PTSUNNY   57  23  26 CALM      30.24R
PAGE           SUNNY     59  26  28 NE3       30.18R
$$

AZZ009>014-017-301600-
NORTHEAST ARIZONA

CITY           SKY/WX    TMP DP  RH WIND       PRES   REMARKS
WINSLOW        PTSUNNY   51  23  33 SE9       30.23S
SAINT JOHNS    PTSUNNY   51  21  30 CALM      30.27R
WINDOW ROCK    SUNNY     45  20  36 CALM      30.31R
SHOW LOW       MOSUNNY   55  19  24 S3        30.31S
$$

AZZ023-301600-
GREATER PHOENIX AREA

CITY           SKY/WX    TMP DP  RH WIND       PRES   REMARKS
PHOENIX        PTSUNNY   74  29  19 SE8       30.01R
BUCKEYE        PTSUNNY   64  39  39 W5        30.01R
GLENDALE       PTSUNNY   72  36  26 CALM      30.03R
DEER VALLEY    PTSUNNY   72  32  23 W5        30.02R
SCOTTSDALE     PTSUNNY   70  34  26 SW5       30.03R
MESA-GATEWAY   MOSUNNY   66  30  26 E6        30.04R
CHANDLER       PTSUNNY   68  32  26 VRB5      30.03R
$$

AZZ027-028-301600-
SOUTHWEST MARICOPA COUNTY AND PINAL COUNTY

CITY           SKY/WX    TMP DP  RH WIND       PRES   REMARKS
CASA GRANDE    MOSUNNY   70  30  23 CALM      30.02R
$$

AZZ503-504-507>509-301600-
SOUTHEAST ARIZONA

CITY           SKY/WX    TMP DP  RH WIND       PRES   REMARKS
TUCSON         MOSUNNY   69  32  25 SE9       30.12R
RYAN FIELD       N/A     66  37  34 CALM      30.11R
NOGALES        PTSUNNY   64  33  31 CALM      30.17R
SIERRA VISTA   SUNNY     66  27  23 SW6       30.22R
DOUGLAS        CLOUDY    57  36  45 CALM      30.19R
SAFFORD        MOSUNNY   61  26  26 S5        30.13S
$$

AZZ020-021-025-026-031-301600-
SOUTHWEST ARIZONA

CITY           SKY/WX    TMP DP  RH WIND       PRES   REMARKS
YUMA           MOSUNNY   69  40  34 S5        29.95R
$$

CAZ031-033-041-043-047-048-061-301600-
SOUTHERN CALIFORNIA

CITY           SKY/WX    TMP DP  RH WIND       PRES   REMARKS
DOWNTOWN L.A.  CLOUDY    59  57  93 CALM      30.03R FOG
L.A. AIRPORT   CLOUDY    59  55  88 VRB3      30.03R FOG
SAN DIEGO      PTSUNNY   61  55  81 NW3       30.03R
BURBANK        SUNNY     59  42  53 CALM      30.02R
ONTARIO        SUNNY     60  50  69 CALM      30.02R
RIVERSIDE      SUNNY     60  45  57 CALM      30.02R
PALM SPRINGS   SUNNY     73  36  25 CALM      29.96R
EL CENTRO NAS  MOSUNNY   67  36  31 SW5       29.93R
IMPERIAL       SUNNY     66  50  56 CALM      29.93R
BLYTHE         SUNNY     69  38  32 SE5       29.96R
NEEDLES        SUNNY     70  24  17 CALM      30.00R
$$

NVZ020-UTZ003-301600-
SOUTHERN NEVADA-UTAH

CITY           SKY/WX    TMP DP  RH WIND       PRES   REMARKS
LAS VEGAS      MOSUNNY   67  25  20 S8        30.03R
SALT LAKE CITY SUNNY     51  27  39 CALM      30.23R
$$

NMZ009-TXZ055-301600-
NEW MEXICO-WEST TEXAS

CITY           SKY/WX    TMP DP  RH WIND       PRES   REMARKS
ALBUQUERQUE    MOSUNNY   55  24  30 SE6       30.28R
EL PASO        CLOUDY    66  34  30 SW5       30.18S
$$


........................KEY........................
SKY/WX - SKY CONDITION/WEATHER
TMP    - TEMPERATURE IN FAHRENHEIT
DP     - DEW POINT IN FAHRENHEIT
RH     - RELATIVE HUMIDITY IN PERCENT
WIND   - DIRECTION AND SPEED IN MILES PER HOUR (MPH)
VRB    - VARIABLE WIND DIRECTION
PRES   - MEAN SEA LEVEL PRESSURE IN INCHES OF MERCURY
         F - FALLING PRESSURE   R - RISING PRESSURE
         S - STEADY PRESSURE
VSB    - VISIBILITY IN MILES
HX     - HEAT INDEX IN FAHRENHEIT
WCI    - WIND CHILL INDEX IN FAHRENHEIT
TC     - TEMPERATURE IN CELSIUS WHICH IS ALSO KNOWN AS
         TEMPERATURE IN CENTIGRADE
AFB    - AIR FORCE BASE
         LUKE AFB IS LUKE AIR FORCE BASE
         DAVIS-MONTHAN IS DAVIS-MONTHAN AIR FORCE BASE
NAS    - NAVAL AIR STATION
         EL CENTRO NAS IS EL CENTRO NAVAL AIR STATION
N/A    - NOT AVAILABLE



USA.gov is the U.S. government's official web portal to all federal, state and local government web resources and services.